This is the latest recevied weather packets stored in our database for station/object NL3D. If no packets are shown the sender has not sent any weather packets the latest 1 day(s).
| Time | Temp. | Humidity | Pressure | Rain* | Wind** | Luminosity | Snow |
|---|---|---|---|---|---|---|---|
| 1778059046 | 5° C | 64% | 1010.3 hPa | 0 mm | 1.34 m/s, 100° | 0 W/m² | - |
| 1778058744 | 5° C | 63% | 1010.2 hPa | 0 mm | 0.45 m/s, 135° | 0 W/m² | - |
| 1778058441 | 5.56° C | 62% | 1010.3 hPa | 0 mm | 0.89 m/s, 110° | 0 W/m² | - |
| 1778058138 | 5.56° C | 61% | 1010.3 hPa | 0 mm | 1.34 m/s, 106° | 0 W/m² | - |
| 1778057835 | 5.56° C | 60% | 1010.4 hPa | 0 mm | 0.89 m/s, 106° | 0 W/m² | - |
| 1778057531 | 6.11° C | 58% | 1009.8 hPa | 0 mm | 0.89 m/s, 144° | 0 W/m² | - |
| 1778057228 | 6.67° C | 57% | 1009.9 hPa | 0 mm | 0.89 m/s, 105° | 0 W/m² | - |
| 1778056924 | 6.11° C | 58% | 1009.9 hPa | 0 mm | 0.89 m/s, 190° | 0 W/m² | - |
| 1778056621 | 6.11° C | 58% | 1010 hPa | 0 mm | 0.45 m/s, 126° | 0 W/m² | - |
| 1778056319 | 5.56° C | 59% | 1009.7 hPa | 0 mm | 1.34 m/s, 112° | 0 W/m² | - |
| 1778056016 | 5.56° C | 60% | 1009.7 hPa | 0 mm | 0.89 m/s, 163° | 0 W/m² | - |
| 1778055716 | 6.11° C | 60% | 1009.8 hPa | 0 mm | 0.45 m/s, 101° | 0 W/m² | - |
| 1778055414 | 6.11° C | 58% | 1009.7 hPa | 0 mm | 0.89 m/s, 108° | 0 W/m² | - |
| 1778055112 | 6.11° C | 57% | 1009.7 hPa | 0 mm | 1.34 m/s, 38° | 0 W/m² | - |
| 1778054810 | 6.11° C | 56% | 1009.7 hPa | 0 mm | 0.89 m/s, 148° | 0 W/m² | - |
| 1778054506 | 6.67° C | 57% | 1009.4 hPa | 0 mm | 0 m/s | 0 W/m² | - |
| 1778054204 | 6.67° C | 57% | 1009.3 hPa | 0 mm | 0 m/s | 0 W/m² | - |
| 1778053900 | 6.67° C | 57% | 1009.4 hPa | 0 mm | 0.89 m/s, 141° | 0 W/m² | - |
| 1778053598 | 6.67° C | 57% | 1009.5 hPa | 0 mm | 2.24 m/s, 124° | 0 W/m² | - |
| 1778053295 | 6.67° C | 57% | 1009.5 hPa | 0 mm | 1.79 m/s, 32° | 0 W/m² | - |
| 1778052993 | 6.67° C | 56% | 1009.1 hPa | 0 mm | 0.89 m/s, 107° | 0 W/m² | - |
| 1778052690 | 6.67° C | 56% | 1009.3 hPa | 0 mm | 0.89 m/s, 83° | 0 W/m² | - |
| 1778052386 | 6.67° C | 56% | 1009.3 hPa | 0 mm | 1.34 m/s, 24° | 0 W/m² | - |
| 1778052085 | 6.67° C | 55% | 1009.1 hPa | 0 mm | 0.89 m/s, 63° | 0 W/m² | - |
| 1778051782 | 6.67° C | 55% | 1009.3 hPa | 0 mm | 1.34 m/s, 40° | 0 W/m² | - |
* Rain latest hour (hover to see other rain measurements)
** Current wind speed in m/s (hover to see current wind gust speed)